Location: Taupo
(38.6830°S, 176.0830°E)
Time: 00:56:12
(UTC+13:00)

ATLAS 3B R/B - Pass Details

Date: 24 January 2019
Orbit: 1021 x 1174 km, 63.8° (Epoch: 17 February)

Event Time Altitude Azimuth Distance (km) Brightness Sun altitude
Exits shadow 22:18:31 22° 70° (ENE) 2,210 3.8 -17.1°
Maximum altitude 22:18:48 22° 73° (ENE) 2,210 3.8 -17.1°
Drops below altitude 10° 22:24:03 10° 120° (ESE) 3,034 4.9 -17.9°
Sets 22:27:27 0° 134° (SE) 4,026 5.7 -18.3°
